Location: ČR
(50.0000°N, 15.0000°E)
Time: 14:35:37
(UTC+00:00)

Transit 4A - Visible Passes

Search period start: 25 October 2021 00:00
Search period end: 04 November 2021 00:00
Orbit: 869 x 976 km, 66.8° (Epoch: 24 October)

Date Brightness Start Highest point End Pass type
(mag) Time Alt. Az. Time Alt. Az. Time Alt. Az.
25 Oct 10.0 02:15:40 10° SSE 02:19:40 19° ESE 02:23:43 10° ENE visible
25 Oct 7.7 03:59:24 10° SW 04:05:14 87° NW 04:11:13 10° NE visible
26 Oct 9.5 02:25:38 18° SSE 02:28:40 28° ESE 02:33:34 10° NE visible
26 Oct 7.8 04:09:13 12° SW 04:14:35 65° NW 04:20:32 10° NNE visible
27 Oct 8.9 02:35:42 30° SSE 02:37:44 39° ESE 02:43:12 10° NE visible
27 Oct 8.1 04:19:17 15° WSW 04:24:00 49° NW 04:29:49 10° NNE visible
28 Oct 8.3 02:45:35 46° SSE 02:46:53 56° ESE 02:52:41 10° NE visible
28 Oct 8.4 04:29:09 15° WSW 04:33:30 38° NW 04:39:04 10° NNE visible
29 Oct 10.3 01:11:47 14° E 01:11:47 14° E 01:13:57 10° ENE visible
29 Oct 7.8 02:55:19 66° S 02:56:06 78° SE 03:02:04 10° NE visible
29 Oct 8.7 04:38:53 14° W 04:43:04 30° NW 04:48:20 10° NNE visible
30 Oct 10.0 01:21:25 19° E 01:21:25 19° E 01:24:07 10° ENE visible
30 Oct 7.6 03:04:57 73° W 03:05:24 79° NW 03:11:25 10° NE visible
30 Oct 9.0 04:48:29 12° W 04:52:43 25° NNW 04:57:38 10° NNE visible
31 Oct 9.7 01:30:57 24° ENE 01:30:57 24° ENE 01:33:53 10° NE visible
31 Oct 7.8 03:14:29 58° WNW 03:14:46 59° NW 03:20:42 10° NNE visible
31 Oct 9.2 04:58:01 10° WNW 05:02:26 21° NNW 05:06:58 10° NNE visible
01 Nov 9.5 01:40:25 28° ENE 01:40:25 28° ENE 01:43:27 10° NE visible
01 Nov 8.1 03:23:57 44° NW 03:24:14 45° NW 03:29:59 10° NNE visible
01 Nov 9.4 05:08:04 10° WNW 05:12:11 19° NNW 05:16:22 10° NNE visible
02 Nov 9.4 01:49:49 31° NE 01:49:49 31° NE 01:52:54 10° NE visible
02 Nov 8.5 03:33:21 35° NW 03:33:45 35° NW 03:39:15 10° NNE visible
02 Nov 9.5 05:18:09 10° NW 05:21:59 17° NNW 05:25:52 10° NNE visible
03 Nov 9.3 01:59:10 32° NE 01:59:10 32° NE 02:02:16 10° NE visible
03 Nov 8.8 03:42:41 28° NW 03:43:21 28° NNW 03:48:31 10° NNE visible
